State College, PA

10:26 PM EDT on August 18, 2017 (GMT -0400)
University Park

Weather History for KUNV - February, 2013

Change the Weather History Date:

Sunday, February 24, 2013

  Actual Average Record
Temperature  
Mean Temperature 30 °F -  
Max Temperature 32 °F 41 °F 73 °F (2017)
Min Temperature 28 °F 24 °F -7 °F (2015)
Degree Days  
Heating Degree Days 35    
Moisture  
Dew Point 23 °F    
Average Humidity 77    
Maximum Humidity 98    
Minimum Humidity 51    
Precipitation  
Precipitation 0.00 in - - ()
Sea Level Pressure  
Sea Level Pressure 29.89 in    
Wind  
Wind Speed 5 mph (WNW)    
Max Wind Speed 18 mph    
Max Gust Speed 24 mph    
Visibility 6 miles    
Events Fog , Snow    
Averages and records for this station are not official NWS values.
T = Trace of Precipitation, MM = Missing Value Source: NWS Daily Summary

Daily Weather History Graph

Daily Weather History Graph

Search for Another Location

Airport or City:

Trip Planner

Search our weather history database for the weather conditions in past years. The results will help you decide how hot, cold, wet, or windy it might be!

Date:

Astronomy

Feb. 24, 2013 Rise Set
Actual Time 6:52 AM EST 5:57 PM EST
Civil Twilight 6:24 AM EST 6:24 PM EST
Nautical Twilight 5:53 AM EST 6:56 PM EST
Astronomical Twilight 5:21 AM EST 7:28 PM EST
Moon 5:06 PM EST (2/24) 5:48 AM EST (2/24)
Length of Visible Light 11h 59m
Length of Day
11h 04m
Waxing Gibbous, 99% of the Moon is Illuminated
Feb 24
Waxing Gibbous
Feb 25
Full
Mar 4
Last Quarter
Mar 11
New
Mar 19
First Quarter

Hourly Weather History & Observations

Time (EST) Temp. Windchill Dew Point Humidity Pressure Visibility Wind Dir Wind Speed Gust Speed Precip Events Conditions
12:15 AM 32.4 °F - 31.1 °F 95% 29.82 in 4.0 mi Calm Calm - N/A   Overcast
12:35 AM 31.8 °F - 30.2 °F 94% 29.81 in 3.0 mi Calm Calm - N/A   Mostly Cloudy
12:55 AM 31.8 °F 28.5 °F 30.6 °F 95% 29.81 in 3.0 mi NE 3.5 mph - N/A   Mostly Cloudy
1:15 AM 30.7 °F 27.3 °F 29.5 °F 95% 29.81 in 0.2 mi North 3.5 mph - N/A Fog Light Freezing Fog
1:35 AM 29.5 °F - 28.6 °F 96% 29.81 in 0.2 mi Calm Calm - N/A Fog Light Freezing Fog
1:55 AM 28.8 °F - 28.0 °F 97% 29.82 in 0.2 mi Calm Calm - N/A Fog Light Freezing Fog
2:15 AM 29.1 °F - 28.4 °F 97% 29.82 in 0.5 mi Calm Calm - N/A Fog Light Freezing Fog
2:35 AM 29.3 °F - 28.8 °F 98% 29.82 in 0.5 mi Calm Calm - N/A Fog Light Freezing Fog
2:55 AM 30.0 °F - 29.3 °F 97% 29.81 in 0.8 mi Calm Calm - N/A   Overcast
3:15 AM 30.0 °F 25.2 °F 29.3 °F 97% 29.82 in 2.0 mi WNW 4.6 mph - N/A   Overcast
3:35 AM 30.2 °F 26.7 °F 29.3 °F 96% 29.81 in 2.5 mi West 3.5 mph - N/A   Overcast
3:55 AM 30.0 °F - 29.5 °F 98% 29.80 in 2.5 mi Calm Calm - N/A   Overcast
4:15 AM 30.0 °F - 29.3 °F 97% 29.81 in 2.0 mi Calm Calm - N/A   Overcast
4:35 AM 30.0 °F - 29.3 °F 97% 29.81 in 2.0 mi Calm Calm - N/A   Overcast
4:55 AM 30.2 °F - 29.7 °F 98% 29.81 in 2.0 mi Calm Calm - N/A   Overcast
5:15 AM 30.2 °F - 29.7 °F 98% 29.81 in 2.0 mi Calm Calm - N/A   Overcast
5:53 AM 32.0 °F 25.6 °F 30.2 °F 93% 29.82 in 5.0 mi West 6.9 mph - N/A   Overcast
6:53 AM 32.0 °F 22.1 °F 24.8 °F 75% 29.84 in 7.0 mi WNW 13.8 mph - N/A   Overcast
7:53 AM 30.2 °F 21.9 °F 23.0 °F 75% 29.85 in 10.0 mi West 9.2 mph - N/A   Mostly Cloudy
8:30 AM 30.2 °F 20.8 °F 21.2 °F 69% 29.86 in 10.0 mi West 11.5 mph - N/A   Overcast
8:53 AM 32.0 °F 20.5 °F 21.2 °F 64% 29.86 in 10.0 mi WNW 18.4 mph - N/A   Overcast
9:53 AM 32.0 °F 23.0 °F 21.2 °F 64% 29.87 in 10.0 mi West 11.5 mph 23.0 mph N/A   Overcast
10:53 AM 30.2 °F 20.8 °F 21.2 °F 69% 29.88 in 10.0 mi West 11.5 mph 23.0 mph N/A   Overcast
11:53 AM 30.2 °F 20.8 °F 19.4 °F 64% 29.89 in 10.0 mi West 11.5 mph 23.0 mph N/A   Overcast
12:53 PM 30.2 °F 22.6 °F 19.4 °F 64% 29.89 in 10.0 mi NNW 8.1 mph - N/A Snow Light Snow
1:58 PM 32.0 °F 22.5 °F 17.6 °F 55% 29.90 in 10.0 mi NW 12.7 mph - N/A Snow Light Snow
2:53 PM 32.0 °F 21.2 °F 15.8 °F 51% 29.90 in 10.0 mi NW 16.1 mph 19.6 mph N/A   Overcast
3:53 PM 32.0 °F 21.6 °F 17.6 °F 55% 29.93 in 10.0 mi WNW 15.0 mph 24.2 mph N/A Snow Light Snow
4:53 PM 32.0 °F 23.0 °F 15.8 °F 51% 29.95 in 10.0 mi NW 11.5 mph 18.4 mph N/A   Overcast
5:53 PM 30.2 °F 22.6 °F 15.8 °F 55% 29.98 in 10.0 mi WNW 8.1 mph - N/A   Overcast
6:53 PM 28.4 °F 17.5 °F 15.8 °F 59% 30.01 in 10.0 mi WNW 13.8 mph 19.6 mph N/A   Mostly Cloudy
7:53 PM 28.4 °F 21.2 °F 17.6 °F 64% 30.04 in 10.0 mi WNW 6.9 mph - N/A   Mostly Cloudy
9:55 PM 28.9 °F 21.9 °F 17.2 °F 62% 30.06 in 10.0 mi WNW 6.9 mph - N/A   Overcast
10:15 PM 28.9 °F 19.8 °F 17.2 °F 62% 30.06 in 10.0 mi WNW 10.4 mph - N/A   Overcast
10:35 PM 28.6 °F 16.4 °F 16.7 °F 61% 30.05 in 10.0 mi West 17.3 mph - N/A   Overcast
10:55 PM 28.4 °F 18.0 °F 16.3 °F 61% 30.05 in 10.0 mi NW 12.7 mph 20.7 mph N/A   Scattered Clouds
11:15 PM 28.2 °F 16.8 °F 16.0 °F 60% 30.05 in 10.0 mi WNW 15.0 mph 21.9 mph N/A   Mostly Cloudy
11:35 PM 28.9 °F 18.6 °F 15.4 °F 57% 30.06 in 10.0 mi WNW 12.7 mph 17.3 mph N/A   Overcast
11:55 PM 28.9 °F 21.1 °F 15.4 °F 57% 30.06 in 10.0 mi WNW 8.1 mph - N/A   Overcast